Theta_e
298 298 298 298 298 299 295 288 278 290 296 282 283 279 281 287 284 288 286 285 285 285 286 286 285 284 286 292 290 285 287 283 275 280 285 286 284 283 283 280 275 274 276 278
297 297 297 298 298 298 291 283 281 291 291 276 277 280 282 285 284 284 284 285 287 287 286 283 287 288 289 289 290 287 289 284 276 279 282 283 282 283 284 283 282 276 275 281
296 297 297 297 297 298 292 283 276 283 286 285 280 277 279 280 286 285 286 285 287 284 284 287 285 287 288 289 291 294 293 280 284 280 281 283 279 282 283 284 281 280 279 282
296 297 297 297 297 297 290 283 279 282 277 279 281 280 278 278 279 285 286 284 284 283 282 283 283 287 286 288 292 290 289 284 281 278 282 283 283 283 283 282 285 282 283 280
297 296 296 297 296 297 288 280 279 280 276 281 280 280 278 277 279 282 281 281 283 283 282 285 284 286 285 284 287 289 287 277 278 276 277 281 280 284 283 284 285 285 279 280
296 296 296 296 297 296 285 285 285 282 279 280 279 278 279 279 281 283 283 283 282 280 283 287 285 288 288 287 286 286 285 281 278 279 276 281 280 282 282 283 285 286 280 287
296 296 295 295 296 296 289 286 284 279 273 276 277 279 280 280 281 279 282 283 282 285 290 291 289 286 285 287 289 290 286 285 285 276 282 276 285 289 287 285 286 288 288 287
296 296 295 295 295 296 290 286 285 280 272 278 279 279 279 281 282 281 281 283 286 288 287 282 278 279 281 283 287 289 290 286 278 277 277 278 280 283 285 285 286 289 288 290
296 295 295 295 295 295 291 286 288 281 275 274 280 278 280 277 278 277 282 285 288 288 283 280 274 272 272 279 282 289 289 289 283 277 273 276 282 283 289 289 283 292 291 290
295 295 295 295 295 295 292 287 289 285 277 278 280 277 278 280 278 276 277 281 283 286 279 275 273 274 278 274 277 281 283 284 281 277 274 277 283 283 291 280 285 290 292 291
295 295 295 295 295 295 293 287 291 286 277 278 282 283 278 278 280 274 277 276 278 281 277 276 276 276 277 277 279 280 282 281 281 279 275 273 283 285 285 289 285 286 291 292
295 294 294 294 294 295 294 285 291 290 283 278 284 284 284 285 285 282 280 279 277 282 278 278 279 277 276 278 274 282 276 283 279 283 282 284 288 286 288 286 287 286 288 290
294 294 295 294 295 296 292 285 288 287 283 281 279 280 284 288 288 288 279 280 284 281 285 281 281 278 280 275 276 277 280 284 281 282 284 283 286 284 285 287 286 286 287 290
294 294 293 295 296 296 293 287 290 287 280 272 273 284 283 286 289 289 287 286 287 286 283 278 279 276 282 280 279 282 282 283 280 279 281 283 284 284 286 286 285 286 288 290
293 290 293 294 296 296 291 290 290 288 282 272 270 281 282 284 287 288 288 288 287 284 279 274 274 278 280 281 281 280 283 283 281 281 284 285 285 286 287 285 285 287 287 286
293 291 294 294 295 294 288 282 289 291 287 278 272 274 281 283 285 285 286 287 286 286 283 277 275 279 282 278 278 283 285 285 286 284 285 286 285 285 286 286 284 285 286 288
292 292 295 296 295 288 283 281 283 293 289 278 269 269 279 285 285 282 285 284 280 282 282 278 281 282 281 275 277 282 286 288 288 286 285 286 284 285 283 283 281 280 282 285
292 293 294 296 294 292 286 289 294 291 283 276 266 267 276 285 280 279 285 282 284 282 278 279 277 281 281 275 281 285 284 285 285 284 286 286 283 279 277 280 282 281 280 280
293 294 295 289 286 280 284 294 290 284 278 270 265 268 268 283 281 281 282 283 278 276 278 273 279 269 276 279 280 281 281 281 283 280 278 276 279 279 279 280 279 278 277 278
294 285 278 274 283 293 292 285 282 280 272 266 264 266 275 278 274 275 273 274 272 272 272 277 278 270 276 273 273 274 274 275 277 278 276 273 274 278 278 280 280 280 278 277
281 271 270 283 290 282 278 274 275 273 272 265 262 267 274 278 273 269 275 273 270 269 269 273 273 268 273 269 270 270 270 270 272 273 278 280 281 278 277 276 278 277 277 274
279 281 283 281 277 273 272 269 269 270 266 265 266 271 275 276 278 274 273 270 270 270 271 272 264 268 263 264 265 266 266 266 268 269 277 277 279 280 278 277 277 275 272 272
277 278 274 275 271 266 261 266 260 261 263 266 269 271 273 273 275 272 272 270 269 267 266 265 263 262 262 262 264 264 264 265 269 271 273 273 272 273 272 271 273 274 274 273
273 270 266 266 266 256 255 257 258 261 264 267 271 269 272 267 267 266 269 264 265 264 261 265 259 257 258 262 263 265 264 267 268 268 268 268 268 270 272 272 273 272 271 271
264 267 266 259 257 253 252 252 256 262 264 267 269 268 271 263 266 264 266 266 268 265 261 255 255 257 257 258 260 261 265 266 266 267 267 267 267 266 266 268 270 270 269 269
257 255 257 256 259 258 255 255 256 261 262 267 271 271 266 260 264 264 259 265 265 258 252 253 254 256 257 257 258 260 263 265 265 265 266 266 267 265 264 265 266 266 267 266
253 251 249 250 252 252 252 252 256 260 260 265 264 269 262 259 255 253 249 254 251 250 252 253 253 254 255 257 257 258 261 264 264 264 264 264 265 267 266 262 261 261 261 261
Wind_Speed
29 27 26 34 27 28 18 14 14 9 15 20 17 21 19 20 17 23 11 5 12 15 24 17 21 22 17 19 19 25 6 6 5 7 3 2 2 3 7 6 7 2 4 10
24 22 20 22 24 29 11 12 5 6 17 24 17 16 7 23 25 19 16 8 9 8 17 17 22 22 9 6 20 22 16 6 6 3 3 3 7 10 10 3 3 10 8 13
17 18 19 22 24 24 14 7 9 8 12 15 23 27 25 17 16 21 22 13 7 8 14 15 18 16 4 10 14 11 19 3 17 18 9 10 10 10 9 10 11 11 10 10
20 18 19 18 18 22 10 8 4 4 16 17 19 20 12 22 14 14 18 16 17 13 19 22 14 24 5 5 15 12 13 16 11 4 4 5 9 20 18 15 23 15 18 11
20 19 20 19 17 24 12 6 6 0 3 14 18 25 20 21 19 10 20 14 18 14 14 15 19 15 13 10 9 21 7 4 5 7 3 5 3 11 19 25 21 21 5 8
22 19 21 20 20 17 5 3 2 6 6 11 15 14 17 24 21 15 8 18 17 19 21 10 6 5 10 7 17 21 11 7 4 11 7 8 3 19 20 15 18 24 10 31
22 19 18 18 18 16 4 2 2 3 3 5 9 13 19 13 17 19 15 11 4 5 7 3 4 9 10 16 18 21 19 15 4 4 10 11 11 13 19 24 17 24 27 7
21 21 19 19 19 20 4 2 5 3 4 8 8 13 16 8 13 15 14 14 10 2 5 1 4 4 5 16 22 23 20 14 5 7 10 2 2 8 14 17 22 23 31 24
22 22 21 20 21 19 4 2 1 3 5 7 7 6 5 6 7 3 8 6 6 7 2 4 3 5 3 3 10 23 20 18 11 5 6 15 10 7 11 9 15 20 29 24
24 24 22 19 23 22 8 4 7 3 3 2 8 7 10 8 5 4 3 4 4 9 6 4 4 5 2 4 7 12 18 17 18 10 4 8 7 10 18 10 16 11 24 23
22 21 22 20 19 21 13 1 12 8 4 3 5 7 7 4 6 6 7 5 2 9 10 5 6 5 8 4 8 6 12 16 12 7 6 8 11 13 21 10 3 2 11 19
20 21 21 20 21 23 15 3 7 4 4 4 1 3 4 10 11 8 1 7 6 7 6 5 3 5 1 9 11 8 6 4 5 12 10 3 25 6 8 3 2 4 7 7
19 19 19 20 24 28 13 3 7 4 4 1 2 5 3 1 6 6 5 4 6 4 4 5 4 7 3 5 6 3 5 3 3 4 7 7 20 2 4 4 2 2 3 11
16 13 12 17 24 26 15 6 7 5 4 4 6 3 4 3 6 4 5 6 3 4 3 3 4 3 3 3 3 1 3 4 2 6 3 4 4 7 3 5 3 5 6 12
12 3 14 12 21 28 12 6 7 3 5 6 3 1 3 2 7 7 5 6 4 1 2 3 5 3 1 2 3 7 4 3 3 4 2 4 6 9 8 9 9 10 14 11
13 9 16 16 30 23 5 4 6 4 3 5 3 1 4 4 5 8 7 4 3 1 2 0 1 1 5 5 8 5 7 4 6 7 7 8 4 3 7 7 7 7 10 14
13 9 16 20 26 7 3 3 5 13 3 3 3 1 1 4 4 3 3 2 2 2 2 1 2 2 2 0 8 6 14 17 19 9 5 7 3 7 8 9 7 8 9 11
13 10 15 25 21 12 3 3 21 11 4 4 3 3 2 6 5 4 3 4 4 3 3 1 3 3 2 5 9 7 6 8 8 10 9 5 5 8 8 10 15 15 14 15
14 15 19 6 3 2 2 15 14 4 5 5 3 6 5 4 3 3 3 4 5 2 6 5 6 2 7 10 6 6 2 6 6 5 5 4 8 11 13 15 13 17 14 15
23 6 5 2 2 13 16 4 4 1 3 4 3 1 3 2 2 3 4 1 5 5 6 4 5 6 2 5 3 2 1 7 3 7 4 4 5 14 15 15 13 16 18 17
3 3 3 1 5 3 3 3 3 2 2 1 4 4 4 2 3 3 2 3 4 5 6 7 4 5 4 4 2 1 2 4 6 5 6 4 11 17 14 12 12 16 17 17
5 7 5 3 3 4 4 1 1 1 5 2 3 3 2 2 2 3 3 3 3 6 3 5 4 2 6 7 5 6 7 5 5 4 3 9 11 12 15 17 17 14 15 18
4 6 4 2 3 3 4 4 4 0 2 2 0 2 1 1 3 3 2 6 3 2 1 4 1 1 5 7 6 5 5 1 5 6 10 15 12 13 15 18 16 22 20 14
5 3 3 2 2 1 4 4 4 2 1 3 2 1 1 2 3 1 5 1 3 3 3 6 2 7 9 8 5 3 3 5 8 10 13 17 16 15 16 16 14 19 20 17
5 2 2 2 2 1 1 2 2 3 3 3 0 1 1 2 4 2 3 2 3 2 4 2 3 9 7 7 6 7 7 5 8 11 15 17 16 16 17 15 14 15 15 16
6 9 4 2 2 4 4 4 2 4 5 3 2 1 2 2 1 3 2 2 2 2 3 3 6 8 7 7 8 8 7 5 10 12 15 17 16 17 17 18 15 14 14 14
6 3 3 3 3 2 1 2 3 6 4 1 1 1 2 1 5 3 3 2 2 3 3 3 5 6 8 8 7 9 7 8 13 14 16 17 15 16 18 20 11 13 13 13
Wind_Direction
263 251 255 247 234 236 220 238 209 185 170 221 220 215 221 204 197 223 229 196 204 204 191 195 199 205 205 194 160 192 184 112 148 189 271 307 16 186 175 170 218 248 143 262
256 249 249 244 240 229 215 242 230 179 185 220 229 207 231 200 203 220 216 216 215 203 198 204 201 212 181 166 177 179 177 184 113 69 341 232 209 192 182 107 83 196 155 250
253 254 250 250 231 228 207 214 203 195 211 207 207 207 214 217 194 211 215 194 213 214 219 207 188 212 160 176 195 190 167 136 201 197 189 133 200 196 205 203 212 211 224 238
251 248 250 238 241 220 224 180 235 192 194 197 195 207 183 218 222 192 211 202 209 201 221 209 209 202 143 187 187 191 172 210 201 214 136 167 189 194 190 200 217 205 237 219
249 247 247 247 228 244 212 171 169 186 283 174 173 198 208 211 219 229 215 219 198 208 230 212 207 196 180 184 202 188 184 234 125 215 86 93 114 191 196 209 221 230 166 267
245 249 252 239 239 237 212 205 69 120 199 178 181 184 192 213 201 213 290 203 216 234 234 207 219 358 330 286 170 191 176 137 141 220 129 89 287 208 190 210 216 221 210 229
254 250 247 253 233 227 199 112 100 135 209 160 176 167 199 193 193 217 210 229 249 232 114 97 194 254 275 286 222 182 184 180 162 143 132 210 238 166 187 203 214 220 241 190
248 250 245 249 247 225 179 196 157 182 153 190 161 167 179 174 186 203 208 194 194 235 116 104 250 196 207 235 220 193 184 170 141 162 195 312 181 198 178 179 238 219 228 229
243 243 247 248 255 243 161 161 139 126 123 212 147 147 165 145 158 78 193 178 143 105 104 197 226 199 137 247 174 201 187 193 182 163 159 205 228 171 145 96 271 212 215 218
237 238 245 243 250 236 198 163 187 125 117 257 138 166 180 141 126 157 96 127 133 172 184 231 215 233 224 268 311 177 187 189 197 190 187 267 217 148 139 140 246 186 197 199
238 240 234 235 239 237 217 167 189 156 147 284 204 164 133 128 148 159 186 89 283 176 181 202 178 195 202 179 210 296 201 188 188 157 157 246 163 146 173 214 39 174 191 196
231 229 228 228 240 234 202 136 187 103 106 196 288 245 182 173 179 181 215 165 168 181 152 179 147 258 274 194 234 182 233 253 192 193 187 176 176 195 180 117 169 218 183 180
223 225 233 250 238 210 164 130 161 118 102 349 70 217 220 81 193 185 142 284 164 186 195 147 173 229 158 183 228 142 239 112 260 121 204 195 199 251 170 134 232 170 161 138
209 219 245 247 190 180 139 160 161 121 112 129 258 250 197 156 157 177 171 160 5 91 111 150 140 179 180 274 308 41 118 101 226 258 46 80 202 224 166 121 133 120 117 139
180 255 237 190 171 142 132 131 170 174 146 169 208 61 236 109 173 177 144 129 150 173 125 149 170 132 186 294 116 251 137 239 256 255 183 149 204 189 178 162 174 162 137 129
147 230 196 189 177 119 114 145 183 176 135 104 166 288 174 162 180 166 163 167 87 247 205 250 347 200 177 196 220 175 155 209 170 265 352 321 344 173 127 161 160 160 138 144
148 172 157 135 132 124 123 182 171 160 145 99 49 324 284 158 127 119 126 132 166 170 133 198 190 201 190 115 240 180 207 212 238 218 122 286 247 200 137 125 114 92 91 118
160 148 134 141 132 103 55 325 148 132 92 75 114 257 141 173 157 158 150 159 167 181 185 183 184 100 230 251 230 182 192 215 217 198 195 249 110 93 91 121 125 117 121 123
149 108 108 104 71 94 156 143 103 65 118 164 126 155 206 154 131 113 152 154 165 167 200 207 138 170 202 216 204 182 196 208 207 113 94 120 140 142 142 139 132 127 130 127
119 74 66 54 214 141 108 121 142 117 333 36 161 3 165 166 133 159 105 176 175 181 233 119 187 230 241 144 158 143 289 320 177 121 137 111 151 165 159 158 144 144 143 135
73 97 94 283 58 69 39 101 164 134 199 121 222 172 157 228 136 155 220 177 154 175 215 165 206 254 210 72 134 106 318 317 290 293 294 182 161 153 143 131 126 129 135 131
142 108 82 70 40 59 101 75 330 183 205 267 138 162 227 120 262 121 164 194 109 206 145 146 217 309 4 355 344 359 358 319 313 314 139 113 132 145 132 127 126 118 114 125
47 59 66 39 26 63 118 149 293 118 304 324 16 143 66 162 225 97 167 192 157 72 63 200 314 4 28 349 320 334 319 275 110 84 86 89 91 99 113 118 119 120 119 118
74 93 55 91 318 239 171 170 193 244 293 322 48 28 251 242 63 98 192 115 139 144 154 208 32 347 337 340 316 251 36 75 103 99 100 99 98 98 103 106 118 123 119 121
83 35 65 54 277 29 221 230 326 331 304 288 263 246 182 5 118 37 125 156 173 181 221 43 355 323 336 335 332 10 35 72 103 116 108 104 103 98 90 85 95 100 102 105
64 38 86 350 45 349 15 6 333 343 325 277 248 228 57 355 54 79 86 140 209 49 359 347 329 335 352 344 353 16 19 88 103 95 97 99 104 101 96 84 74 76 87 93
55 23 49 90 51 143 258 324 329 323 308 74 314 167 196 105 56 50 350 45 27 336 333 338 334 334 343 346 23 27 32 77 86 96 93 98 101 104 95 90 78 80 78 83